Weather reports worldwide

Advertisment
Berlin-Schönefeld, Germany (10385): temperature & dewpoint: 25.05.2020 00:00:00 - 31.05.2020 00:00:00 (CEST)Berlin-Schönefeld, Germany (10385): temperature 5cm & temperature -5cm: 25.05.2020 00:00:00 - 31.05.2020 00:00:00 (CEST)Berlin-Schönefeld, Germany (10385): temperature -20cm & temperature -100cm: 25.05.2020 00:00:00 - 31.05.2020 00:00:00 (CEST)Berlin-Schönefeld, Germany (10385): wind speed & gusts: 25.05.2020 00:00:00 - 31.05.2020 00:00:00 (CEST)Berlin-Schönefeld, Germany (10385): wind direction: 25.05.2020 00:00:00 - 31.05.2020 00:00:00 (CEST)Berlin-Schönefeld, Germany (10385): reduced air pressure: 25.05.2020 00:00:00 - 31.05.2020 00:00:00 (CEST)Berlin-Schönefeld, Germany (10385): visibility: 25.05.2020 00:00:00 - 31.05.2020 00:00:00 (CEST)Berlin-Schönefeld, Germany (10385): sunshine duration: 25.05.2020 00:00:00 - 31.05.2020 00:00:00 (CEST)Berlin-Schönefeld, Germany (10385): precipitation: 25.05.2020 00:00:00 - 31.05.2020 00:00:00 (CEST)
Date & Time tt [°C] td [°C] tt 5cm [°C] tt -5cm [°C] tt -20cm [°C] tt -100cm [°C] ff [km/h] ff [kn] fx [km/h] fx [kn] dd ppp [hPa] vv [km] sd [min] rr [mm]
31.05.2020 00:00:00 12,4 5,6 11,4 13,8 16,9 13,6 16 9 29 15 NNE 1022,9 60 0 0,0
30.05.2020 23:00:00 13,0 5,5 11,9 14,6 17,3 13,6 21 11 31 17 N 1022,8 60 0 0,0
30.05.2020 22:00:00 14,0 5,9 12,9 15,6 17,8 13,6 19 10 35 19 NNE 1022,7 60 0 0,0
30.05.2020 21:00:00 15,2 4,9 14,2 17,0 18,1 13,6 24 13 36 20 NNE 1022,1 10 11 0,0
30.05.2020 20:00:00 16,2 3,7 15,7 18,8 18,3 13,6 21 11 35 19 NNE 1022,0 10 40 0,0
30.05.2020 19:00:00 17,6 3,1 18,7 20,0 18,4 13,6 16 9 39 21 N 1022,0 10 47 0,0
30.05.2020 18:00:00 17,7 3,1 21,4 20,5 18,5 13,6 22 12 39 21 NE 1022,3 10 58 0,0
30.05.2020 17:00:00 17,8 3,1 20,5 22,5 18,3 13,5 26 14 40 21 NNE 1022,3 10 42 0,0
30.05.2020 16:00:00 17,5 4,2 21,6 24,4 17,8 13,5 27 15 40 22 N 1022,4 60 36 0,0
30.05.2020 15:00:00 17,1 3,0 19,8 23,5 17,5 13,5 26 14 46 25 N 1023,0 10 18 0,0
30.05.2020 14:00:00 17,1 3,0 20,2 22,1 17,1 13,5 29 15 47 25 NNE 1023,4 30 1 0,0
30.05.2020 13:00:00 16,9 2,7 20,6 21,8 16,7 13,5 32 18 49 26 NE 1024,0 60 2 0,0
30.05.2020 12:00:00 16,2 2,4 18,3 22,6 16,2 13,5 27 14 46 25 NNE 1024,5 60 33 0,0
30.05.2020 11:00:00 15,8 3,2 20,2 21,3 15,5 13,5 21 11 39 21 NE 1024,9 10 39 0,0
30.05.2020 10:00:00 15,5 3,4 20,3 20,6 14,9 13,5 27 14 40 22 NE 1025,2 65 56 0,0
30.05.2020 09:00:00 14,4 2,7 18,2 18,2 14,3 13,5 22 12 34 18 NE 1025,5 10 58 0,0
30.05.2020 08:00:00 13,9 4,4 19,3 15,2 14,1 13,5 13 7 25 13 NNE 1025,7 65 60 0,0
30.05.2020 07:00:00 11,3 4,2 12,9 11,7 14,2 13,5 13 7 22 12 NNE 1026,0 10 60 0,0
30.05.2020 06:00:00 9,3 3,9 8,0 9,9 14,6 13,4 9 5 13 7 N 1026,3 50 22 0,0
30.05.2020 05:00:00 7,8 3,0 3,0 9,9 15,0 13,4 9 5 16 9 NNE 1026,4 10 0 0,0
30.05.2020 04:00:00 8,8 3,6 5,4 10,7 15,5 13,4 12 6 22 12 NNE 1026,4 50 0 0,0
30.05.2020 03:00:00 9,5 4,1 7,0 11,5 16,0 13,4 16 9 25 14 NE 1026,3 10 0 0,0
30.05.2020 02:00:00 10,8 5,0 8,4 12,3 16,5 13,4 13 7 18 10 NNE 1026,2 60 0 0,0
30.05.2020 01:00:00 11,7 5,3 9,3 13,2 17,0 13,4 15 8 26 14 NNE 1026,1 10 0 0,0
30.05.2020 00:00:00 12,9 5,7 11,1 14,1 17,5 13,4 15 8 29 15 NNE 1026,0 60 0 0,0
29.05.2020 23:00:00 13,9 5,0 12,1 15,1 18,0 13,4 18 10 29 16 NNE 1026,1 10 0 0,0
29.05.2020 22:00:00 14,8 5,2 12,0 16,3 18,5 13,4 15 8 29 15 NE 1026,1 10 0 0,0
29.05.2020 21:00:00 16,7 6,5 15,4 18,0 19,0 13,4 13 7 26 14 NNE 1025,7 60 37 0,0
29.05.2020 20:00:00 17,5 5,7 18,1 19,4 19,4 13,4 15 8 23 13 NNE 1025,9 10 4 0,0
29.05.2020 19:00:00 17,7 5,5 17,6 20,5 19,8 13,4 19 10 34 18 NNE 1026,2 65 0 0,0
29.05.2020 18:00:00 17,9 5,0 17,7 22,1 20,0 13,4 9 5 26 14 NE 1026,3 10 0 0,0
29.05.2020 17:00:00 18,9 3,5 19,4 24,2 19,9 13,4 20 11 29 16 NE 1026,6 65 20 0,0
29.05.2020 16:00:00 20,0 2,7 23,9 28,0 19,4 13,4 19 11 36 20 NNE 1027,0 60 49 0,0
29.05.2020 15:00:00 20,0 3,2 26,6 26,9 18,9 13,3 16 9 34 18 NE 1027,7 65 29 0,0
29.05.2020 14:00:00 19,2 2,9 23,7 27,7 18,1 13,3 16 9 32 17 NNE 1028,4 10 28 0,0
29.05.2020 13:00:00 18,9 2,9 25,3 27,7 17,1 13,3 16 9 33 18 NE 1029,0 10 36 0,0
29.05.2020 12:00:00 18,9 1,7 24,8 27,2 16,0 13,3 19 10 29 15 NNE 1029,5 60 60 0,0
29.05.2020 11:00:00 17,6 1,7 23,8 24,2 14,9 13,3 10 5 21 11 NNE 1030,0 60 60 0,0
29.05.2020 10:00:00 16,1 1,5 21,9 20,7 14,1 13,3 11 6 20 11 ENE 1030,2 10 60 0,0
29.05.2020 09:00:00 15,0 4,8 19,4 17,1 13,6 13,3 9 5 18 10 NNE 1030,5 60 60 0,0
29.05.2020 08:00:00 12,5 5,1 16,6 13,7 13,4 13,3 8 4 14 8 ENE 1030,8 10 60 0,0
29.05.2020 07:00:00 9,9 5,6 11,1 10,7 13,5 13,3 11 6 14 8 NE 1030,8 10 60 0,0
29.05.2020 06:00:00 8,4 5,2 5,9 9,1 13,9 13,3 8 4 13 7 NNE 1030,5 10 21 0,0
29.05.2020 05:00:00 7,3 4,7 3,5 9,4 14,3 13,2 11 6 16 9 NE 1030,4 10 0 0,0
29.05.2020 04:00:00 8,1 5,1 5,6 10,0 14,7 13,2 11 6 18 10 NE 1030,3 60 0 0,0
29.05.2020 03:00:00 8,4 5,0 6,2 10,6 15,2 13,2 13 7 18 10 NE 1030,0 60 0 0,0
29.05.2020 02:00:00 9,9 5,4 8,2 11,2 15,7 13,2 11 6 18 10 N 1030,1 10 0 0,0
29.05.2020 01:00:00 10,6 5,7 8,6 11,9 16,2 13,2 13 7 22 12 NNE 1030,1 10 0 0,0
29.05.2020 00:00:00 11,4 5,9 8,5 12,8 16,7 13,2 13 7 24 13 NNE 1029,9 10 0 0,0
28.05.2020 23:00:00 12,9 5,7 10,9 13,8 17,2 13,2 21 11 29 16 NNE 1029,5 10 0 0,0
28.05.2020 22:00:00 13,2 5,3 10,1 15,0 17,7 13,2 13 7 31 17 NE 1029,3 10 0 0,0
28.05.2020 21:00:00 15,7 5,6 14,5 16,9 18,1 13,2 21 11 38 20 NNE 1028,7 10 45 0,0
28.05.2020 20:00:00 17,0 6,3 17,1 18,8 18,3 13,2 24 13 40 22 NE 1028,2 10 60 0,0
28.05.2020 19:00:00 18,3 4,1 18,6 19,7 18,5 13,2 24 13 43 23 NNE 1027,8 45 60 0,0
28.05.2020 18:00:00 18,9 3,8 20,7 20,7 18,6 13,1 29 16 41 22 N 1027,8 10 51 0,0
28.05.2020 17:00:00 19,7 4,2 21,7 23,2 18,4 13,1 29 16 42 23 N 1027,8 10 43 0,0
28.05.2020 16:00:00 19,4 3,8 22,7 24,3 18,0 13,1 21 11 33 18 N 1028,2 10 34 0,0
28.05.2020 15:00:00 17,9 5,3 19,4 23,4 17,6 13,1 22 12 35 19 N 1028,6 10 19 0,0
28.05.2020 14:00:00 19,3 5,7 22,4 23,5 17,2 13,1 19 11 34 18 N 1028,9 60 25 0,0
28.05.2020 13:00:00 16,7 4,9 18,0 22,3 16,6 13,1 25 13 35 19 N 1029,3 60 28 0,0
28.05.2020 12:00:00 17,7 4,3 23,9 22,8 15,9 13,1 24 13 38 21 NNW 1029,4 10 42 0,0
28.05.2020 11:00:00 16,9 4,2 20,6 21,6 15,2 13,1 26 14 41 22 NNW 1029,6 10 60 0,0
28.05.2020 10:00:00 15,5 4,4 18,3 18,5 14,8 13,0 24 13 37 20 N 1029,8 50 59 0,0
28.05.2020 09:00:00 14,0 7,0 17,0 16,0 14,6 13,0 20 11 29 16 NNW 1030,0 50 34 0,0
28.05.2020 08:00:00 12,7 7,0 13,2 13,7 14,7 13,0 21 11 31 17 NNW 1030,0 10 19 0,0
28.05.2020 07:00:00 12,7 6,6 12,6 12,5 14,9 13,0 19 11 29 16 NNW 1030,1 60 8 0,0
28.05.2020 06:00:00 12,2 6,4 11,6 11,8 15,3 13,0 13 7 21 11 NNW 1030,2 60 0 0,0
28.05.2020 05:00:00 12,3 7,0 11,2 12,1 15,7 13,0 11 6 19 10 NNW 1030,0 10 0 0,0
28.05.2020 04:00:00 13,2 7,1 11,5 13,1 16,1 13,0 9 5 18 10 N 1029,5 60 0 0,0
28.05.2020 03:00:00 13,6 7,1 12,3 13,6 16,5 13,0 18 10 33 18 NE 1029,1 60 0 0,0
28.05.2020 02:00:00 14,5 9,2 13,4 14,3 16,9 12,9 21 11 35 19 N 1029,9 60 0 0,0
28.05.2020 01:00:00 15,0 9,2 14,1 15,1 17,3 12,9 16 9 29 16 N 1029,9 60 0 0,0
28.05.2020 00:00:00 14,3 10,5 12,7 15,9 17,8 12,9 16 9 42 23 N 1029,7 10 0 0,9
27.05.2020 23:00:00 17,7 9,3 17,2 17,3 18,1 12,9 21 11 35 19 N 1029,0 10 0 0,0
27.05.2020 22:00:00 19,1 7,8 18,5 18,1 18,5 12,9 16 9 27 14 N 1028,8 10 0 0,0
27.05.2020 21:00:00 19,8 7,0 18,9 19,1 18,9 12,9 21 11 29 16 NW 1028,3 10 0 0,0
27.05.2020 20:00:00 21,0 5,4 20,3 20,4 19,2 12,9 16 9 25 14 NW 1028,3 10 9 0,0
27.05.2020 19:00:00 21,6 7,0 21,8 22,1 19,4 12,9 11 6 25 14 NW 1028,6 45 37 0,0
27.05.2020 18:00:00 21,9 7,0 23,0 23,6 19,5 12,9 16 9 26 14 NW 1029,0 10 14 0,0
27.05.2020 17:00:00 22,3 5,8 25,9 25,3 19,4 12,9 9 5 26 14 NW 1029,5 45 23 0,0
27.05.2020 16:00:00 21,4 6,8 23,2 29,4 18,8 12,9 15 8 27 14 WNW 1030,2 10 43 0,0
27.05.2020 15:00:00 21,8 6,5 27,4 30,1 17,8 12,9 12 7 24 13 W 1030,8 45 49 0,0
27.05.2020 14:00:00 20,8 6,3 25,1 30,0 16,8 12,9 13 7 26 14 WSW 1031,4 10 58 0,0
27.05.2020 13:00:00 20,7 5,2 25,4 26,8 15,8 12,9 10 6 24 13 WSW 1031,9 45 60 0,0
27.05.2020 12:00:00 19,6 4,7 24,9 24,4 14,8 12,9 11 6 17 9 WNW 1032,5 10 60 0,0
27.05.2020 11:00:00 18,5 4,8 23,0 22,7 13,8 12,9 4 2 9 5 - 1033,1 10 60 0,0
27.05.2020 10:00:00 17,8 5,1 22,4 20,2 12,9 12,9 4 2 8 4 - 1033,5 10 60 0,0
27.05.2020 09:00:00 16,1 5,9 19,3 17,1 12,2 12,9 3 1 5 3 S 1033,9 45 60 0,0
27.05.2020 08:00:00 13,9 7,4 17,8 13,5 11,9 12,9 3 2 5 3 SE 1033,9 45 60 0,0
27.05.2020 07:00:00 11,6 8,3 9,5 9,7 11,9 12,9 2 1 6 3 - 1034,0 10 60 0,0
27.05.2020 06:00:00 8,2 6,1 4,7 7,9 12,2 12,9 2 1 5 3 NNE 1034,0 45 20 0,0
27.05.2020 05:00:00 5,8 4,6 1,7 7,7 12,6 12,9 0 0 4 2 N 1034,1 45 0 0,0
27.05.2020 04:00:00 7,0 5,8 2,4 8,1 13,0 12,9 2 1 4 2 SSW 1034,1 45 0 0,0
27.05.2020 03:00:00 7,0 5,7 2,4 8,6 13,5 12,9 3 2 5 3 NNE 1034,5 50 0 0,0
27.05.2020 02:00:00 8,6 6,2 2,1 9,1 14,0 12,9 4 2 5 3 NNE 1034,7 10 0 0,0
27.05.2020 01:00:00 9,5 6,5 3,2 10,0 14,5 12,9 2 1 8 4 - 1034,6 10 0 0,0
27.05.2020 00:00:00 11,3 6,6 4,4 11,0 15,0 12,9 5 3 13 7 NE 1034,6 10 0 0,0
26.05.2020 23:00:00 12,8 6,9 7,2 12,1 15,5 12,9 12 6 16 9 NE 1034,6 60 0 0,0
26.05.2020 22:00:00 13,4 6,6 7,3 13,3 15,9 12,9 7 4 15 8 NE 1034,2 60 0 0,0
26.05.2020 21:00:00 16,1 6,0 13,3 14,8 16,3 12,9 9 5 18 10 NE 1033,7 10 42 0,0
26.05.2020 20:00:00 17,9 5,6 17,0 16,2 16,6 13,0 13 7 27 14 NE 1033,5 10 45 0,0
26.05.2020 19:00:00 18,7 5,3 17,6 16,7 16,8 13,0 11 6 29 16 NE 1033,2 60 45 0,0
26.05.2020 18:00:00 19,5 4,1 21,6 17,7 17,1 13,0 11 6 37 20 N 1033,3 10 44 0,0
26.05.2020 17:00:00 19,9 4,5 23,9 20,1 17,0 13,0 15 8 28 15 NE 1033,4 10 51 0,0
26.05.2020 16:00:00 18,6 5,1 18,5 21,3 16,8 13,0 18 10 29 16 NE 1033,6 10 30 0,0
26.05.2020 15:00:00 20,0 6,7 24,8 23,2 16,4 13,0 14 8 29 16 N 1033,7 60 42 0,0
26.05.2020 14:00:00 17,9 6,1 18,6 22,7 15,8 13,0 13 7 26 14 N 1034,0 10 38 0,0
26.05.2020 13:00:00 18,3 7,0 22,9 23,6 14,9 13,0 13 7 28 15 N 1034,5 10 52 0,0
26.05.2020 12:00:00 17,1 5,4 22,5 22,6 14,0 13,0 15 8 26 14 NE 1034,6 50 60 0,0
26.05.2020 11:00:00 16,2 7,9 21,6 21,1 13,1 13,0 10 6 21 11 NNE 1034,5 50 60 0,0
26.05.2020 10:00:00 15,2 9,0 19,4 18,4 12,4 13,0 13 7 22 12 N 1034,8 45 53 0,0
26.05.2020 09:00:00 14,1 9,2 16,7 15,7 11,8 13,1 13 7 22 12 N 1034,5 35 60 0,0
26.05.2020 08:00:00 12,4 9,3 15,1 13,0 11,5 13,1 9 5 16 9 NW 1034,1 10 60 0,0
26.05.2020 07:00:00 10,2 9,0 10,0 10,1 11,5 13,1 10 5 16 9 NW 1033,8 23 60 0,0
26.05.2020 06:00:00 8,7 8,1 7,5 7,9 11,7 13,1 9 5 11 6 NW 1033,4 10 17 0,0
26.05.2020 05:00:00 5,8 5,2 3,0 7,9 12,1 13,1 6 3 8 4 WNW 1032,9 23 0 0,0
26.05.2020 04:00:00 8,0 7,6 3,2 8,5 12,4 13,1 2 1 5 3 - 1032,7 10 0 0,0
26.05.2020 03:00:00 7,7 6,7 3,9 9,3 12,8 13,1 4 2 5 3 NW 1032,5 30 0 0,0
26.05.2020 02:00:00 10,8 8,7 7,9 10,3 13,0 13,1 5 3 13 7 NNW 1032,6 10 0 0,0
26.05.2020 01:00:00 12,0 8,7 10,8 10,9 13,2 13,1 12 6 16 9 NNW 1032,3 40 0 0,0
26.05.2020 00:00:00 12,1 9,1 10,6 11,7 13,4 13,1 8 4 11 6 WNW 1032,0 10 0 0,0
25.05.2020 23:00:00 12,5 9,5 11,8 12,0 13,6 13,1 9 5 15 8 WNW 1031,7 10 0 0,0
25.05.2020 22:00:00 13,1 9,2 12,3 12,2 13,8 13,1 8 4 16 9 NW 1031,5 10 0 0,0
25.05.2020 21:00:00 13,4 8,9 12,6 12,8 14,0 13,1 11 6 22 12 NW 1030,7 40 0 0,0
25.05.2020 20:00:00 13,2 8,9 12,3 13,2 14,1 13,2 14 8 24 13 NW 1030,0 35 8 0,0
25.05.2020 19:00:00 13,4 9,1 13,4 14,0 14,1 13,2 16 9 29 16 NW 1029,6 35 0 0,0
25.05.2020 18:00:00 13,7 8,7 13,9 14,4 14,2 13,2 16 9 30 16 NW 1029,4 10 0 0,0
25.05.2020 17:00:00 13,2 8,8 14,3 14,5 14,2 13,2 17 9 35 19 NW 1029,1 40 1 0,0
25.05.2020 16:00:00 12,8 9,1 13,2 14,5 14,2 13,2 21 11 40 21 NNW 1028,7 30 0 0,0
25.05.2020 15:00:00 12,6 9,5 12,4 15,3 14,1 13,2 21 11 39 21 NNW 1028,3 30 0 0,1
25.05.2020 14:00:00 13,3 9,6 13,9 16,7 13,9 13,2 18 10 38 20 NW 1027,5 10 6 0,4
25.05.2020 13:00:00 12,5 9,7 13,5 15,3 13,7 13,2 18 10 41 22 NW 1027,3 10 0 0,1
25.05.2020 12:00:00 12,7 7,6 14,1 15,4 13,4 13,2 29 16 42 23 WNW 1026,7 45 0 0,0
25.05.2020 11:00:00 13,0 7,2 14,2 15,2 13,2 13,2 28 15 42 23 NW 1026,3 10 14 0,0
25.05.2020 10:00:00 12,5 7,7 13,8 13,9 12,9 13,2 26 14 41 22 NW 1026,1 10 2 0,0
25.05.2020 09:00:00 12,0 8,3 12,9 13,2 12,8 13,2 24 13 37 20 WNW 1025,9 35 0 0,0
25.05.2020 08:00:00 11,7 9,3 12,0 12,1 12,8 13,2 22 12 31 17 WNW 1025,4 10 0 0,0
25.05.2020 07:00:00 10,8 9,3 10,2 11,3 12,8 13,2 18 10 35 19 WNW 1025,2 20 0 0,8
25.05.2020 06:00:00 10,7 8,9 10,0 11,1 12,9 13,2 21 11 30 16 WNW 1025,0 10 0 0,1
25.05.2020 05:00:00 10,9 9,0 10,3 11,0 13,1 13,2 16 9 26 14 W 1024,6 10 0 0,0
25.05.2020 04:00:00 10,9 8,6 10,3 11,0 13,2 13,2 18 10 38 21 W 1024,4 10 0 0,0
25.05.2020 03:00:00 11,0 9,2 10,4 11,0 13,4 13,2 18 10 28 15 W 1024,4 10 0 0,0
25.05.2020 02:00:00 10,1 9,3 9,2 10,6 13,7 13,2 14 8 21 11 W 1024,6 30 0 0,0
25.05.2020 01:00:00 10,5 9,6 9,4 11,1 14,0 13,2 16 9 22 12 W 1024,6 10 0 0,0
25.05.2020 00:00:00 10,5 9,6 9,3 11,7 14,3 13,2 13 7 18 10 WSW 1024,5 10 0 0,0

tt = temperature
td = dewpoint
tt 5cm = temperature 5cm
tt -5cm = temperature -5cm
tt -20cm = temperature -20cm
tt -100cm = temperature -100cm
ff = wind speed
fx = gusts
dd = wind direction
ppp = reduced air pressure
vv = visibility
sd = sunshine duration
rr = precipitation

Next stations